FENGYUN 1C DEB, 30315

Orbit data source: Space-Track

FENGYUN 1C DEB, 30315 is space debris in SSO originally from a launch on Mon, 10 May 1999 UTC launched from the Taiyaun Space Center, China (TSC). Fengyun 1C debris stems from the Chinese weather satellite Fengyun-1C, which was intentionally destroyed by a Chinese anti-satellite missile in 2007. This event dramatically increased the amount of space debris, with thousands of trackable fragments posing hazards to satellites and human spaceflight. The Fengyun 1C debris cloud has become a focal point in discussions about space sustainability and the need for international regulations to prevent the creation of new debris.

Loading next visibility...
Identifier
30315, 1999-025AAC
Orbit
SSO
Country
Flag of CNCN / PRC
Related business
Manufacturer
Unknown
Mission
Spacecraft
Bus & Motor
Unknown
Mass
Unknown
Launch date (UTC)
1999-05-10 (27 years ago)
Launch vehicle
Unknown
Launch site
Taiyaun Space Center, China (TSC)
Object type
Payload
Rocket body
Debris
Shape & HBR
Unknown shape, 0.1 m
Radar Cross Section
Medium (>0.1 m² and <1 m²)

Expand to show TLE details & history
Last TLE update: 1 day ago

TLE from 1 day ago
0 FENGYUN 1C DEB
1 30315U 99025AAC 26253.52648014  .00000346  00000-0  18419-3 0  9994
2 30315  98.6005 260.1107 0034035 295.0086 187.9488 14.19391151 15628
Epoch: 2026-09-10T12:38Z
TLE epoch observation values (Epoch: 2026-09-10T12:38:07.884Z)
Latitude
56.21289°
Longitude
-85.99124°
Altitude
861.055 km
Speed
7.415 km/s
True Right ascension
06h 12m 25s
True Declination
56° 03' 22"
Sunlit
Object was in daylight at epoch
Visualization orbit readout
Latitude
Unknown
Longitude
Unknown
Altitude
Unknown
Speed
Unknown
Apparent Right ascension
Unknown
Apparent Declination
Unknown
Sunlit
N/A
Visualization observer readout
Local Sidereal Time
07:34:31
Azimuth
Unknown
Elevation
Unknown
Doppler factor
Unknown
Orbital elements
Apogee altitude
849.081 km
Perigee altitude
800.052 km
Semi-major axis
7,202.704 km
Eccentricity
0.0034
Inclination
98.6005°
RAAN
260.1107°
Arg. of periapsis
295.0086°
True anomaly
187.89509°
Mean anomaly
187.9488°
Eccentric anomaly
187.92192°
Mean motion
3.55058 °/min
Orbital period
101.39 mins
BSTAR
0.00018419
Loading maneuver chart data...
Computing Atmospheric mass density...

Documentation

Showing up to 5 results
|